SCP
0 0 0 0 0 0 0 0 0 0 0 0 0 -0 -0 -0 -0 0 0 0 0 0 0 0 0 0 0 0 0 0 0 0 0 0 0 0 0 0 0 0 0 0 0 0 0
0 0 0 0 0 0 0 0 0 0 0 0 0 0 0 0 0 0 0 0 0 0 0 0 0 0 0 0 0 0 0 0 0 0 0 0 0 0 0 0 0 0 0 0 0
0 0 0 0 0 0 0 0 0 0 0 0 0 0 0 0 0 0 0 0 0 0 0 0 0 0 0 0 0 0 0 0 0 0 0 0 0 0 0 0 0 0 0 0 0
0 0 0 0 0 0 0 0 0 0 0 0 0 0 0 0 0 0 0 0 0 0 0 0 0 0 0 0 0 0 0 0 0 0 0 0 0 0 0 0 0 0 0 0 0
0 0 0 0 0 0 0 0 0 0 0 0 0 0 0 0 0 0 0 0 0 0 0 0 0 0 0 0 0 0 0 0 0 0 0 0 0 0 0 0 0 0 0 0 0
0 0 0 0 0 0 0 0 0 0 0 0 0 0 0 0 0 0 0 0 0 0 0 0 0 0 0 0 0 0 0 0 0 0 0 0 0 0 0 0 0 0 0 0 0
0 0 0 0 0 0 0 0 0 0 0 0 0 0 0 0 0 0 0 0 0 0 0 0 0 0 0 0 0 0 0 0 0 0 0 0 0 0 0 0 0 0 0 0 0
0 0 0 0 0 0 0 0 0 0 0 0 0 0 0 0 0 0 0 0 0 0 0 0 0 0 0 0 0 0 0 0 0 0 0 0 0 0 0 0 0 0 0 0 0
0 0 0 0 0 0 0 0 0 0 0 0 0 0 0 0 0 0 0 0 0 0 0 0 0 0 0 0 0 0 0 0 0 0 0 0 0 0 0 0 0 0 0 0 0
0 0 0 0 0 0 0 0 0 0 0 0 0 0 0 0 0 0 0 0 0 0 0 0 0 0 0 0 0 0 0 0 0 0 0 0 0 0 0 0 0 0 0 0 0
0 0 0 0 0 0 0 0 0 0 0 0 0 0 0 0 0 0 0 0 0 0 0 0 0 0 0 0 0 0 0 0 0 0 0 0 0 0 0 0 0 0 0 0 0
0 0 0 0 0 0 0 0 0 0 0 0 0 0 0 0 0 0 0 0 0 0 0 0 0 0 0 0 0 0 0 0 0 0 0 0 0 0 0 0 0 0 0 0 0
0 0 0 0 0 0 0 0 0 0 0 0 0 0 0 0 0 0 0 0 0 0 0 0 0 0 0 0 0 0 0 0 0 0 0 0 0 0 0 0 0 0 0 0 0
0 0 0 0 0 0 0 0 0 0 0 0 0 0 0 0 0 0 0 0 0 0 0 0 0 0 0 0 0 0 0 0 0 0 0 0 0 0 0 0 0 0 0 0 0
0 0 0 0 0 0 0 0 0 0 0 0 0 0 0 0 0 0 0 0 0 0 0 0 0 0 0 0 0 0 0 0 0 0 0 0 0 0 0 0 0 0 0 0 0
0 0 0 0 0 0 0 0 0 0 0 0 0 0 0 0 0 0 0 0 0 0 0 0 0 0 0 0 0 0 0 0 0 0 0 0 0 0 0 0 0 0 0 0 0
0 0 0 0 0 0 0 0 0 0 0 0 0 0 0 0 0 0 0 0 0 0 0 0 0 0 0 0 0 0 0 0 0 0 0 0 0 0 0 0 0 0 0 0 0
0 0 0 0 0 0 0 0 0 0 0 0 0 0 0 0 0 0 0 0 0 0 0 0 0 0 0 0 0 0 0 0 0 0 0 0 0 0 0 0 0 0 0 0 0
0 0 0 0 0 0 0 0 0 0 0 0 0 0 0 0 0 0 0 0 0 0 0 0 0 0 0 0 0 0 0 0 0 0 0 0 0 0 0 0 0 0 0 0 0
0 0 0 0 0 0 0 0 0 0 0 0 0 0 0 0 0 0 0 0 0 0 0 0 0 0 0 0 0 0 0 0 0 0 0 0 0 0 0 0 0 0 0 0 0
0 0 0 0 0 0 0 0 0 0 0 0 0 0 0 0 0 0 0 0 0 0 0 0 0 0 0 0 0 0 0 0 0 0 0 0 0 0 0 0 0 0 0 0 0
0 0 0 0 0 0 0 0 0 0 0 0 0 0 0 0 0 0 0 0 0 0 0 0 0 0 0 0 0 0 0 0 0 0 0 0 0 0 0 0 0 0 0 0 0
0 0 0 0 0 0 0 0 0 0 0 0 0 0 0 0 0 0 0 0 0 0 0 0 0 0 0 0 0 0 0 0 0 0 0 0 0 0 0 0 0 0 0 0 0
0 0 0 0 0 0 0 0 0 0 0 0 0 0 0 0 0 0 0 0 0 0 0 0 0 0 0 0 0 0 0 0 0 0 0 0 0 0 0 0 0 0 0 0 0
0 0 0 0 0 0 0 0 0 0 0 0 0 0 0 0 0 0 0 0 0 0 0 0 0 0 0 0 0 0 0 0 0 0 0 0 0 0 0 0 0 0 0 0 0
0 0 0 0 0 0 0 0 0 0 0 0 0 0 0 0 0 0 0 0 0 0 0 0 0 0 0 0 0 0 0 0 0 0 0 0 0 0 0 0 0 0 0 0 0
0 0 0 0 0 0 0 0 0 0 0 0 0 0 0 0 0 0 0 0 0 0 0 0 0 0 0 0 0 0 0 0 0 0 0 0 0 0 0 0 0 0 0 0 0
Wind_Speed_500mb
6 5 5 5 6 6 6 6 7 7 9 10 11 13 14 15 17 17 15 8 9 11 12 9 5 2 4 5 5 5 5 8 12 13 10 5 9 3 2 2 4 4 3 8 15
11 10 10 11 11 12 11 11 11 10 11 13 14 16 16 17 18 17 11 9 10 12 12 11 9 6 4 4 3 2 5 6 5 7 11 7 2 0 5 1 6 6 4 12 15
18 17 16 15 16 17 16 16 15 14 14 15 16 16 16 17 18 4 4 6 9 14 17 13 6 0 4 2 2 2 2 6 7 9 6 6 4 3 4 4 5 4 3 2 4
24 23 22 21 20 20 20 20 19 19 19 18 18 16 16 13 7 3 6 9 12 15 13 9 2 3 3 4 2 5 3 5 5 11 8 5 5 4 5 3 6 7 10 9 9
30 29 27 26 25 24 23 22 22 22 22 20 20 18 16 8 13 13 10 12 14 15 13 8 5 7 6 6 5 5 5 6 7 11 11 9 9 2 3 5 8 13 7 3 5
37 35 33 31 29 28 26 25 24 25 24 23 21 21 17 12 17 17 18 19 18 18 16 12 7 9 9 5 6 3 5 9 11 8 10 10 5 11 8 13 9 8 3 2 5
43 40 37 35 33 31 30 28 27 26 26 24 24 22 23 28 20 17 18 19 20 20 18 16 13 9 12 8 3 1 9 13 10 6 9 13 7 11 10 12 7 4 4 5 7
46 44 41 39 36 34 32 30 29 27 27 25 24 21 17 24 25 30 30 23 21 21 19 18 16 12 5 14 4 5 5 8 6 5 4 13 7 16 3 16 6 2 1 2 2
46 46 43 41 39 36 34 32 30 28 27 25 22 16 14 23 28 32 27 22 23 20 19 20 21 8 11 9 6 5 12 11 4 3 5 13 3 14 2 11 7 4 4 4 4
47 47 46 45 43 39 34 31 29 29 29 25 26 11 27 16 19 26 30 26 21 25 20 14 7 8 7 16 17 13 11 10 11 6 7 11 19 14 3 6 7 8 8 9 9
46 49 48 46 45 42 34 24 21 18 35 27 15 13 8 26 22 24 31 33 22 18 16 10 15 25 38 35 10 4 8 14 6 4 8 22 26 16 9 10 12 13 13 14 19
46 44 44 43 42 41 35 22 19 8 17 34 49 39 19 28 19 30 38 25 19 17 17 8 28 30 3 19 17 13 17 25 9 5 9 18 29 16 13 10 13 17 17 18 22
50 45 39 36 34 38 42 38 26 13 13 18 47 54 46 46 30 43 52 26 13 20 33 26 5 21 17 15 22 24 28 23 18 7 8 11 27 21 9 12 17 19 21 22 26
55 48 45 38 35 42 44 35 22 3 11 14 17 21 40 37 18 38 58 24 13 29 17 19 9 14 21 23 24 30 26 17 14 10 18 6 13 10 15 20 25 28 29 29 31
43 56 56 58 39 41 40 31 32 13 15 11 10 11 27 28 28 21 50 26 20 18 15 13 20 22 22 16 25 11 12 20 14 22 10 16 11 7 12 23 27 38 38 35 33
53 50 63 64 61 47 25 39 41 8 26 8 8 12 16 11 6 12 25 14 12 11 4 10 1 10 9 6 17 29 18 11 6 6 15 30 25 15 15 19 34 46 47 46 45
66 61 57 80 79 57 46 62 9 15 5 15 11 15 16 13 8 12 25 26 23 18 29 12 17 8 9 10 5 12 20 8 11 12 15 6 17 24 11 17 34 58 62 54 51
56 59 59 61 84 71 72 25 15 39 52 12 12 13 22 20 11 14 20 25 35 14 9 22 16 30 27 36 21 33 36 13 15 12 6 4 16 9 5 15 7 49 57 56 57
56 62 60 66 94 86 70 29 31 26 33 27 14 13 19 12 12 17 24 20 27 35 26 20 15 6 11 8 25 20 22 7 10 3 3 11 9 11 11 11 18 43 56 59 58
60 47 55 53 83 94 35 34 22 27 18 31 42 33 33 26 26 30 29 18 16 39 18 10 9 3 8 8 1 12 24 11 10 10 12 8 10 16 21 28 21 35 55 60 62
48 19 42 43 73 68 26 21 29 24 33 28 38 27 23 24 33 23 24 10 27 26 44 9 7 7 8 24 35 12 15 10 7 7 7 5 10 9 20 33 38 50 62 68 67
50 12 28 35 34 13 27 30 37 26 39 27 7 34 26 29 28 34 35 27 46 36 31 21 4 14 27 1 5 23 15 29 14 12 7 4 10 8 7 23 42 46 55 60 66
34 40 29 51 22 20 11 33 37 29 32 22 27 21 24 23 16 30 26 15 38 37 35 25 11 6 6 10 7 18 23 27 11 5 21 15 8 8 5 14 32 38 48 58 67
25 9 33 49 41 14 30 30 39 38 27 47 25 25 9 29 22 15 24 14 35 37 37 51 21 30 36 12 23 24 34 31 27 18 23 34 16 17 20 21 29 36 44 54 70
36 13 17 8 32 38 29 25 39 35 34 47 18 43 42 26 31 44 37 8 9 18 13 27 29 41 50 13 14 17 40 44 47 59 34 35 35 34 34 31 45 48 46 52 60
22 13 15 12 26 20 35 16 35 32 21 19 37 34 32 34 42 30 36 25 27 17 21 12 24 41 43 21 19 15 34 54 58 51 44 22 28 25 43 28 31 42 48 54 64
19 37 25 18 21 20 25 34 27 36 18 31 25 25 25 45 45 15 4 13 8 21 33 25 29 16 42 25 7 15 54 42 42 35 44 39 30 18 15 29 42 41 48 61 60
Wind_Direction_500mb
212 230 245 256 266 262 268 275 288 297 309 313 316 318 321 318 315 311 300 257 229 211 205 200 198 172 102 83 76 104 202 186 180 177 150 151 182 141 308 221 64 71 127 257 285
245 251 263 274 275 276 274 276 278 289 297 304 311 314 318 319 316 303 275 245 215 193 191 179 164 137 87 90 43 243 241 177 153 154 152 155 222 107 223 175 154 127 333 292 280
256 261 265 266 274 276 276 279 282 287 289 295 300 307 313 321 319 275 196 171 164 160 155 152 154 47 104 103 64 168 264 155 166 167 163 168 260 186 257 174 71 340 320 165 150
252 260 264 267 268 272 277 280 284 288 290 294 298 302 307 315 291 225 190 175 163 162 168 167 185 123 140 188 139 208 186 193 148 174 169 203 157 204 244 97 238 257 150 113 109
254 258 263 266 266 267 272 277 281 284 289 292 295 299 305 286 257 246 230 216 208 205 205 225 232 162 189 164 169 219 190 213 225 195 237 238 235 194 114 201 163 148 148 114 52
254 256 259 260 262 265 266 271 276 281 283 287 289 293 293 255 259 248 240 231 222 218 223 232 236 187 126 170 231 136 249 262 267 248 222 220 163 174 139 150 153 155 158 359 343
255 256 256 257 258 259 264 269 273 277 279 282 286 287 278 264 259 244 236 230 228 227 227 220 203 179 151 145 149 79 286 285 235 221 220 178 172 159 145 171 166 181 224 244 258
254 254 254 254 255 256 260 266 270 272 274 278 281 285 261 258 246 242 237 229 221 218 213 201 185 172 122 131 82 248 243 255 125 162 158 194 203 158 198 211 211 206 272 309 318
249 250 251 253 253 254 258 264 265 267 270 274 274 261 259 247 234 232 225 219 207 196 186 180 173 138 136 187 226 208 257 222 255 189 169 223 164 161 43 188 178 154 116 85 45
248 247 249 252 254 255 256 259 263 267 264 266 250 258 234 223 215 214 209 199 183 176 151 164 140 181 166 194 236 207 217 227 234 168 215 226 248 165 106 174 167 148 126 108 109
246 244 244 248 251 252 251 253 266 263 232 214 225 194 176 200 195 196 192 178 166 167 187 161 205 215 215 214 233 177 210 238 173 145 229 243 254 199 191 173 172 166 150 135 130
249 242 241 243 245 246 238 213 216 233 290 249 240 226 214 192 175 191 183 175 176 194 136 160 229 228 192 193 197 216 237 243 267 193 233 253 256 238 198 205 199 176 159 150 132
243 242 237 238 237 234 235 228 232 250 265 253 235 231 222 216 211 198 186 191 190 177 195 213 184 190 167 170 200 225 225 233 255 159 231 272 265 221 189 180 170 176 162 153 143
235 236 234 228 233 233 232 218 205 171 269 226 215 229 206 203 225 207 193 178 186 210 182 238 172 154 189 211 200 235 216 223 212 220 257 218 280 207 181 184 190 182 176 167 157
242 234 228 225 219 213 227 202 185 137 273 109 144 184 172 183 141 181 180 196 187 170 179 200 176 189 204 206 187 255 156 201 204 225 259 199 257 193 173 207 195 188 181 175 166
240 241 232 220 220 225 194 160 155 165 240 183 131 159 151 178 131 113 170 169 160 143 262 264 161 196 214 96 185 134 108 78 94 191 248 227 217 203 198 215 183 188 185 179 174
244 234 245 225 211 209 173 152 159 199 146 179 175 175 179 163 160 169 176 183 182 190 223 211 218 173 170 131 111 185 160 194 221 208 245 154 207 250 197 183 191 183 184 181 178
244 235 241 249 224 201 178 167 202 221 213 112 129 139 187 157 193 172 165 194 215 199 145 203 231 188 193 214 187 196 190 191 213 205 183 134 225 233 96 136 160 187 179 177 180
241 243 252 242 221 202 177 198 211 211 191 163 135 174 197 199 185 176 206 217 199 197 199 191 239 187 192 152 172 186 214 176 107 1 233 203 235 237 155 169 168 176 179 183 183
233 244 242 253 221 194 202 204 229 211 156 188 207 194 189 186 181 193 186 192 204 195 198 194 253 213 162 137 110 210 152 182 227 211 234 214 248 222 201 197 183 182 188 187 188
226 225 249 245 227 192 208 221 232 225 202 187 207 213 205 183 201 199 208 181 204 199 192 132 210 144 143 208 189 162 190 206 203 203 225 243 233 212 193 186 186 194 194 190 190
207 217 231 222 199 209 203 201 218 211 223 240 226 218 199 184 199 210 214 219 190 154 180 187 174 200 203 154 269 233 220 193 204 189 239 284 247 162 190 188 189 189 192 193 194
203 216 223 209 227 209 209 214 221 197 202 206 224 221 204 197 221 214 215 190 175 170 170 170 191 193 237 222 191 214 204 215 226 62 203 192 208 169 185 214 198 184 186 190 195
204 204 214 209 236 252 203 209 216 219 218 210 224 211 168 222 220 230 221 191 201 204 192 165 178 206 225 234 160 209 205 204 196 225 209 230 207 199 192 198 193 187 190 191 196
203 226 206 206 225 246 250 196 210 213 214 203 211 222 215 229 227 233 232 164 203 217 205 184 222 219 237 238 203 210 199 196 208 222 210 231 219 195 189 195 197 195 189 188 197
194 195 172 199 224 221 234 217 195 208 169 204 225 216 219 225 217 233 226 210 213 177 188 200 226 224 236 218 217 218 212 207 213 219 234 230 226 189 195 184 184 193 187 195 202
234 226 215 214 215 222 236 232 212 201 209 209 206 227 217 231 242 248 185 209 201 190 195 186 205 194 228 208 218 266 224 205 210 214 217 219 230 150 180 191 198 191 196 204 204
Wind_Speed_850mb
6 5 5 5 6 6 6 6 7 7 9 10 11 13 14 15 17 17 15 8 9 11 12 9 5 2 4 5 5 5 5 8 12 13 10 5 9 3 2 2 4 4 3 8 15
11 10 10 11 11 12 11 11 11 10 11 13 14 16 16 17 18 17 11 9 10 12 12 11 9 6 4 4 3 2 5 6 5 7 11 7 2 0 5 1 6 6 4 12 15
18 17 16 15 16 17 16 16 15 14 14 15 16 16 16 17 18 4 4 6 9 14 17 13 6 0 4 2 2 2 2 6 7 9 6 6 4 3 4 4 5 4 3 2 4
24 23 22 21 20 20 20 20 19 19 19 18 18 16 16 13 7 3 6 9 12 15 13 9 2 3 3 4 2 5 3 5 5 11 8 5 5 4 5 3 6 7 10 9 9
30 29 27 26 25 24 23 22 22 22 22 20 20 18 16 8 13 13 10 12 14 15 13 8 5 7 6 6 5 5 5 6 7 11 11 9 9 2 3 5 8 13 7 3 5
37 35 33 31 29 28 26 25 24 25 24 23 21 21 17 12 17 17 18 19 18 18 16 12 7 9 9 5 6 3 5 9 11 8 10 10 5 11 8 13 9 8 3 2 5
43 40 37 35 33 31 30 28 27 26 26 24 24 22 23 28 20 17 18 19 20 20 18 16 13 9 12 8 3 1 9 13 10 6 9 13 7 11 10 12 7 4 4 5 7
46 44 41 39 36 34 32 30 29 27 27 25 24 21 17 24 25 30 30 23 21 21 19 18 16 12 5 14 4 5 5 8 6 5 4 13 7 16 3 16 6 2 1 2 2
46 46 43 41 39 36 34 32 30 28 27 25 22 16 14 23 28 32 27 22 23 20 19 20 21 8 11 9 6 5 12 11 4 3 5 13 3 14 2 11 7 4 4 4 4
47 47 46 45 43 39 34 31 29 29 29 25 26 11 27 16 19 26 30 26 21 25 20 14 7 8 7 16 17 13 11 10 11 6 7 11 19 14 3 6 7 8 8 9 9
46 49 48 46 45 42 34 24 21 18 35 27 15 13 8 26 22 24 31 33 22 18 16 10 15 25 38 35 10 4 8 14 6 4 8 22 26 16 9 10 12 13 13 14 19
46 44 44 43 42 41 35 22 19 8 17 34 49 39 19 28 19 30 38 25 19 17 17 8 28 30 3 19 17 13 17 25 9 5 9 18 29 16 13 10 13 17 17 18 22
50 45 39 36 34 38 42 38 26 13 13 18 47 54 46 46 30 43 52 26 13 20 33 26 5 21 17 15 22 24 28 23 18 7 8 11 27 21 9 12 17 19 21 22 26
55 48 45 38 35 42 44 35 22 3 11 14 17 21 40 37 18 38 58 24 13 29 17 19 9 14 21 23 24 30 26 17 14 10 18 6 13 10 15 20 25 28 29 29 31
43 56 56 58 39 41 40 31 32 13 15 11 10 11 27 28 28 21 50 26 20 18 15 13 20 22 22 16 25 11 12 20 14 22 10 16 11 7 12 23 27 38 38 35 33
53 50 63 64 61 47 25 39 41 8 26 8 8 12 16 11 6 12 25 14 12 11 4 10 1 10 9 6 17 29 18 11 6 6 15 30 25 15 15 19 34 46 47 46 45
66 61 57 80 79 57 46 62 9 15 5 15 11 15 16 13 8 12 25 26 23 18 29 12 17 8 9 10 5 12 20 8 11 12 15 6 17 24 11 17 34 58 62 54 51
56 59 59 61 84 71 72 25 15 39 52 12 12 13 22 20 11 14 20 25 35 14 9 22 16 30 27 36 21 33 36 13 15 12 6 4 16 9 5 15 7 49 57 56 57
56 62 60 66 94 86 70 29 31 26 33 27 14 13 19 12 12 17 24 20 27 35 26 20 15 6 11 8 25 20 22 7 10 3 3 11 9 11 11 11 18 43 56 59 58
60 47 55 53 83 94 35 34 22 27 18 31 42 33 33 26 26 30 29 18 16 39 18 10 9 3 8 8 1 12 24 11 10 10 12 8 10 16 21 28 21 35 55 60 62
48 19 42 43 73 68 26 21 29 24 33 28 38 27 23 24 33 23 24 10 27 26 44 9 7 7 8 24 35 12 15 10 7 7 7 5 10 9 20 33 38 50 62 68 67
50 12 28 35 34 13 27 30 37 26 39 27 7 34 26 29 28 34 35 27 46 36 31 21 4 14 27 1 5 23 15 29 14 12 7 4 10 8 7 23 42 46 55 60 66
34 40 29 51 22 20 11 33 37 29 32 22 27 21 24 23 16 30 26 15 38 37 35 25 11 6 6 10 7 18 23 27 11 5 21 15 8 8 5 14 32 38 48 58 67
25 9 33 49 41 14 30 30 39 38 27 47 25 25 9 29 22 15 24 14 35 37 37 51 21 30 36 12 23 24 34 31 27 18 23 34 16 17 20 21 29 36 44 54 70
36 13 17 8 32 38 29 25 39 35 34 47 18 43 42 26 31 44 37 8 9 18 13 27 29 41 50 13 14 17 40 44 47 59 34 35 35 34 34 31 45 48 46 52 60
22 13 15 12 26 20 35 16 35 32 21 19 37 34 32 34 42 30 36 25 27 17 21 12 24 41 43 21 19 15 34 54 58 51 44 22 28 25 43 28 31 42 48 54 64
19 37 25 18 21 20 25 34 27 36 18 31 25 25 25 45 45 15 4 13 8 21 33 25 29 16 42 25 7 15 54 42 42 35 44 39 30 18 15 29 42 41 48 61 60
Wind_Direction_850mb
212 230 245 256 266 262 268 275 288 297 309 313 316 318 321 318 315 311 300 257 229 211 205 200 198 172 102 83 76 104 202 186 180 177 150 151 182 141 308 221 64 71 127 257 285
245 251 263 274 275 276 274 276 278 289 297 304 311 314 318 319 316 303 275 245 215 193 191 179 164 137 87 90 43 243 241 177 153 154 152 155 222 107 223 175 154 127 333 292 280
256 261 265 266 274 276 276 279 282 287 289 295 300 307 313 321 319 275 196 171 164 160 155 152 154 47 104 103 64 168 264 155 166 167 163 168 260 186 257 174 71 340 320 165 150
252 260 264 267 268 272 277 280 284 288 290 294 298 302 307 315 291 225 190 175 163 162 168 167 185 123 140 188 139 208 186 193 148 174 169 203 157 204 244 97 238 257 150 113 109
254 258 263 266 266 267 272 277 281 284 289 292 295 299 305 286 257 246 230 216 208 205 205 225 232 162 189 164 169 219 190 213 225 195 237 238 235 194 114 201 163 148 148 114 52
254 256 259 260 262 265 266 271 276 281 283 287 289 293 293 255 259 248 240 231 222 218 223 232 236 187 126 170 231 136 249 262 267 248 222 220 163 174 139 150 153 155 158 359 343
255 256 256 257 258 259 264 269 273 277 279 282 286 287 278 264 259 244 236 230 228 227 227 220 203 179 151 145 149 79 286 285 235 221 220 178 172 159 145 171 166 181 224 244 258
254 254 254 254 255 256 260 266 270 272 274 278 281 285 261 258 246 242 237 229 221 218 213 201 185 172 122 131 82 248 243 255 125 162 158 194 203 158 198 211 211 206 272 309 318
249 250 251 253 253 254 258 264 265 267 270 274 274 261 259 247 234 232 225 219 207 196 186 180 173 138 136 187 226 208 257 222 255 189 169 223 164 161 43 188 178 154 116 85 45
248 247 249 252 254 255 256 259 263 267 264 266 250 258 234 223 215 214 209 199 183 176 151 164 140 181 166 194 236 207 217 227 234 168 215 226 248 165 106 174 167 148 126 108 109
246 244 244 248 251 252 251 253 266 263 232 214 225 194 176 200 195 196 192 178 166 167 187 161 205 215 215 214 233 177 210 238 173 145 229 243 254 199 191 173 172 166 150 135 130
249 242 241 243 245 246 238 213 216 233 290 249 240 226 214 192 175 191 183 175 176 194 136 160 229 228 192 193 197 216 237 243 267 193 233 253 256 238 198 205 199 176 159 150 132
243 242 237 238 237 234 235 228 232 250 265 253 235 231 222 216 211 198 186 191 190 177 195 213 184 190 167 170 200 225 225 233 255 159 231 272 265 221 189 180 170 176 162 153 143
235 236 234 228 233 233 232 218 205 171 269 226 215 229 206 203 225 207 193 178 186 210 182 238 172 154 189 211 200 235 216 223 212 220 257 218 280 207 181 184 190 182 176 167 157
242 234 228 225 219 213 227 202 185 137 273 109 144 184 172 183 141 181 180 196 187 170 179 200 176 189 204 206 187 255 156 201 204 225 259 199 257 193 173 207 195 188 181 175 166
240 241 232 220 220 225 194 160 155 165 240 183 131 159 151 178 131 113 170 169 160 143 262 264 161 196 214 96 185 134 108 78 94 191 248 227 217 203 198 215 183 188 185 179 174
244 234 245 225 211 209 173 152 159 199 146 179 175 175 179 163 160 169 176 183 182 190 223 211 218 173 170 131 111 185 160 194 221 208 245 154 207 250 197 183 191 183 184 181 178
244 235 241 249 224 201 178 167 202 221 213 112 129 139 187 157 193 172 165 194 215 199 145 203 231 188 193 214 187 196 190 191 213 205 183 134 225 233 96 136 160 187 179 177 180
241 243 252 242 221 202 177 198 211 211 191 163 135 174 197 199 185 176 206 217 199 197 199 191 239 187 192 152 172 186 214 176 107 1 233 203 235 237 155 169 168 176 179 183 183
233 244 242 253 221 194 202 204 229 211 156 188 207 194 189 186 181 193 186 192 204 195 198 194 253 213 162 137 110 210 152 182 227 211 234 214 248 222 201 197 183 182 188 187 188
226 225 249 245 227 192 208 221 232 225 202 187 207 213 205 183 201 199 208 181 204 199 192 132 210 144 143 208 189 162 190 206 203 203 225 243 233 212 193 186 186 194 194 190 190
207 217 231 222 199 209 203 201 218 211 223 240 226 218 199 184 199 210 214 219 190 154 180 187 174 200 203 154 269 233 220 193 204 189 239 284 247 162 190 188 189 189 192 193 194
203 216 223 209 227 209 209 214 221 197 202 206 224 221 204 197 221 214 215 190 175 170 170 170 191 193 237 222 191 214 204 215 226 62 203 192 208 169 185 214 198 184 186 190 195
204 204 214 209 236 252 203 209 216 219 218 210 224 211 168 222 220 230 221 191 201 204 192 165 178 206 225 234 160 209 205 204 196 225 209 230 207 199 192 198 193 187 190 191 196
203 226 206 206 225 246 250 196 210 213 214 203 211 222 215 229 227 233 232 164 203 217 205 184 222 219 237 238 203 210 199 196 208 222 210 231 219 195 189 195 197 195 189 188 197
194 195 172 199 224 221 234 217 195 208 169 204 225 216 219 225 217 233 226 210 213 177 188 200 226 224 236 218 217 218 212 207 213 219 234 230 226 189 195 184 184 193 187 195 202
234 226 215 214 215 222 236 232 212 201 209 209 206 227 217 231 242 248 185 209 201 190 195 186 205 194 228 208 218 266 224 205 210 214 217 219 230 150 180 191 198 191 196 204 204